| time (UTC) | temp C | wind direction | speed KPH | gust KPH | rain 1hr cm | rain 24hr cm | rain mn cm | humidity % | barometer mb |
| 20260505041134 | 14 | 198 | 1.6 | 4.8 | 0.00 | 0.00 | 0.00 | 58 | 1007.1 |
| 20260505040635 | 13 | 217 | 1.6 | 4.8 | 0.00 | 0.00 | 0.00 | 58 | 1006.8 |
| 20260505035635 | 13 | 206 | 1.6 | 3.2 | 0.00 | 0.00 | 0.00 | 57 | 1007.1 |
| 20260505035134 | 13 | 186 | 1.6 | 3.2 | 0.00 | 0.00 | 0.00 | 57 | 1007.3 |
| 20260505034635 | 13 | 167 | 3.2 | 4.8 | 0.00 | 0.00 | 0.00 | 58 | 1007.1 |
| 20260505034134 | 13 | 195 | 1.6 | 4.8 | 0.00 | 0.00 | 0.00 | 56 | 1007.2 |
| 20260505033635 | 13 | 188 | 1.6 | 4.8 | 0.00 | 0.00 | 0.00 | 55 | 1007.3 |
| 20260505033134 | 13 | 223 | 0.0 | 3.2 | 0.00 | 0.00 | 0.00 | 56 | 1007.3 |
| 20260505032634 | 13 | 232 | 0.0 | 3.2 | 0.00 | 0.00 | 0.00 | 58 | 1006.9 |
| 20260505032133 | 13 | 218 | 1.6 | 3.2 | 0.00 | 0.00 | 0.00 | 57 | 1007.1 |
| 20260505031133 | 13 | 208 | 0.0 | 3.2 | 0.00 | 0.00 | 0.00 | 57 | 1007.2 |
| 20260505030634 | 13 | 218 | 0.0 | 3.2 | 0.00 | 0.00 | 0.00 | 57 | 1007.2 |
| 20260505030133 | 13 | 214 | 0.0 | 3.2 | 0.00 | 0.00 | 0.00 | 58 | 1007.4 |
| 20260505025634 | 13 | 223 | 0.0 | 1.6 | 0.00 | 0.00 | 0.00 | 57 | 1007.5 |
| 20260505025133 | 13 | 223 | 0.0 | 1.6 | 0.00 | 0.00 | 0.00 | 57 | 1007.7 |
| 20260505024635 | 12 | 225 | 0.0 | 1.6 | 0.00 | 0.00 | 0.00 | 58 | 1007.5 |
| 20260505024133 | 12 | 226 | 0.0 | 1.6 | 0.00 | 0.00 | 0.00 | 60 | 1007.6 |
| 20260505023134 | 12 | 226 | 0.0 | 0.0 | 0.00 | 0.00 | 0.00 | 60 | 1007.6 |
| 20260505022635 | 13 | 226 | 0.0 | 0.0 | 0.00 | 0.00 | 0.00 | 58 | 1007.6 |
| 20260505021634 | 13 | 226 | 0.0 | 1.6 | 0.00 | 0.00 | 0.00 | 56 | 1007.6 |
| 20260505021133 | 13 | 221 | 0.0 | 1.6 | 0.00 | 0.00 | 0.00 | 56 | 1007.8 |
| 20260505020634 | 13 | 221 | 1.6 | 1.6 | 0.00 | 0.00 | 0.00 | 56 | 1007.7 |
| 20260505020134 | 13 | 222 | 0.0 | 1.6 | 0.00 | 0.00 | 0.00 | 56 | 1007.7 |
| 20260505015635 | 13 | 218 | 0.0 | 1.6 | 0.00 | 0.00 | 0.00 | 56 | 1008.1 |
| 20260505015134 | 13 | 217 | 1.6 | 1.6 | 0.00 | 0.00 | 0.00 | 57 | 1007.8 |
| 20260505014636 | 13 | 217 | 0.0 | 1.6 | 0.00 | 0.00 | 0.00 | 57 | 1008.0 |
| 20260505014134 | 13 | 218 | 1.6 | 1.6 | 0.00 | 0.00 | 0.00 | 57 | 1007.9 |
| 20260505013635 | 13 | 218 | 0.0 | 1.6 | 0.00 | 0.00 | 0.00 | 57 | 1008.0 |
| 20260505013135 | 13 | 222 | 1.6 | 1.6 | 0.00 | 0.00 | 0.00 | 57 | 1008.1 |
| 20260505012635 | 13 | 223 | 0.0 | 1.6 | 0.00 | 0.00 | 0.00 | 57 | 1008.0 |
| 20260505012134 | 13 | 223 | 0.0 | 1.6 | 0.00 | 0.00 | 0.00 | 56 | 1008.0 |
| 20260505011635 | 13 | 223 | 0.0 | 1.6 | 0.00 | 0.00 | 0.00 | 55 | 1008.1 |
| 20260505011134 | 13 | 223 | 0.0 | 1.6 | 0.00 | 0.00 | 0.00 | 54 | 1008.0 |
| 20260505010636 | 13 | 223 | 0.0 | 1.6 | 0.00 | 0.00 | 0.00 | 54 | 1008.0 |
| 20260505010134 | 13 | 222 | 0.0 | 1.6 | 0.00 | 0.00 | 0.00 | 53 | 1008.0 |
| 20260505005635 | 13 | 223 | 0.0 | 1.6 | 0.00 | 0.00 | 0.00 | 53 | 1007.9 |
| 20260505005134 | 13 | 223 | 0.0 | 1.6 | 0.00 | 0.00 | 0.00 | 53 | 1008.1 |
| 20260505004636 | 13 | 223 | 0.0 | 0.0 | 0.00 | 0.00 | 0.00 | 53 | 1007.9 |
| 20260505004134 | 13 | 223 | 0.0 | 0.0 | 0.00 | 0.00 | 0.00 | 54 | 1008.2 |
| 20260505003135 | 13 | 223 | 0.0 | 1.6 | 0.00 | 0.00 | 0.00 | 54 | 1008.3 |
| 20260505002135 | 14 | 223 | 0.0 | 1.6 | 0.00 | 0.00 | 0.00 | 54 | 1008.3 |
| 20260505001635 | 14 | 223 | 0.0 | 1.6 | 0.00 | 0.00 | 0.00 | 54 | 1008.3 |
| 20260505001135 | 14 | 223 | 0.0 | 1.6 | 0.00 | 0.00 | 0.00 | 54 | 1008.3 |
| 20260505000635 | 14 | 223 | 0.0 | 1.6 | 0.00 | 0.00 | 0.00 | 54 | 1008.5 |
| 20260505000133 | 14 | 220 | 1.6 | 1.6 | 0.00 | 0.00 | 0.00 | 54 | 1008.5 |
| 20260504235634 | 13 | 223 | 0.0 | 1.6 | 0.00 | 0.00 | 0.00 | 54 | 1008.4 |
| 20260504235134 | 13 | 235 | 0.0 | 1.6 | 0.00 | 0.00 | 0.00 | 55 | 1008.5 |
| 20260504234133 | 13 | 237 | 0.0 | 1.6 | 0.00 | 0.00 | 0.00 | 55 | 1008.5 |
| 20260504233634 | 13 | 237 | 0.0 | 1.6 | 0.00 | 0.00 | 0.00 | 55 | 1008.6 |
| 20260504233134 | 13 | 238 | 0.0 | 0.0 | 0.00 | 0.00 | 0.00 | 55 | 1008.6 |
| 20260504232134 | 13 | 238 | 0.0 | 0.0 | 0.00 | 0.00 | 0.00 | 54 | 1008.7 |
| 20260504231636 | 13 | 238 | 0.0 | 0.0 | 0.00 | 0.00 | 0.00 | 54 | 1008.9 |
| 20260504231133 | 13 | 238 | 0.0 | 0.0 | 0.00 | 0.00 | 0.00 | 54 | 1008.6 |
| 20260504230635 | 13 | 238 | 0.0 | 0.0 | 0.00 | 0.00 | 0.00 | 55 | 1008.9 |
| 20260504230134 | 13 | 238 | 0.0 | 0.0 | 0.00 | 0.00 | 0.00 | 54 | 1008.9 |
| 20260504225635 | 13 | 238 | 0.0 | 0.0 | 0.00 | 0.00 | 0.00 | 54 | 1009.0 |
| 20260504225134 | 13 | 238 | 0.0 | 0.0 | 0.00 | 0.00 | 0.00 | 54 | 1008.9 |
| 20260504224134 | 14 | 237 | 0.0 | 1.6 | 0.00 | 0.00 | 0.00 | 52 | 1009.2 |
| 20260504223633 | 14 | 238 | 0.0 | 0.0 | 0.00 | 0.00 | 0.00 | 53 | 1009.0 |
| 20260504223132 | 14 | 238 | 0.0 | 1.6 | 0.00 | 0.00 | 0.00 | 53 | 1009.0 |
| 20260504222133 | 14 | 241 | 0.0 | 0.0 | 0.00 | 0.00 | 0.00 | 53 | 1008.9 |
| 20260504221133 | 15 | 245 | 0.0 | 1.6 | 0.00 | 0.00 | 0.00 | 53 | 1009.2 |
| 20260504220634 | 15 | 218 | 0.0 | 1.6 | 0.00 | 0.00 | 0.00 | 53 | 1009.1 |
| 20260504220132 | 15 | 200 | 1.6 | 1.6 | 0.00 | 0.00 | 0.00 | 52 | 1009.2 |
| 20260504215633 | 15 | 233 | 0.0 | 1.6 | 0.00 | 0.00 | 0.00 | 52 | 1009.0 |
| 20260504215132 | 15 | 236 | 0.0 | 1.6 | 0.00 | 0.00 | 0.00 | 52 | 1009.2 |
| 20260504214633 | 15 | 251 | 0.0 | 1.6 | 0.00 | 0.00 | 0.00 | 53 | 1009.2 |
| 20260504214132 | 15 | 226 | 0.0 | 1.6 | 0.00 | 0.00 | 0.00 | 53 | 1009.2 |
| 20260504213634 | 15 | 251 | 0.0 | 1.6 | 0.00 | 0.00 | 0.00 | 53 | 1009.2 |
| 20260504213132 | 15 | 206 | 1.6 | 1.6 | 0.00 | 0.00 | 0.00 | 52 | 1009.3 |
| 20260504212132 | 16 | 240 | 0.0 | 1.6 | 0.00 | 0.00 | 0.00 | 52 | 1009.0 |
| 20260504211121 | 16 | 245 | 0.0 | 1.6 | 0.00 | 0.00 | 0.00 | 51 | 1009.1 |
| 20260504210620 | 16 | 239 | 0.0 | 3.2 | 0.00 | 0.00 | 0.00 | 50 | 1009.1 |
| 20260504205620 | 16 | 241 | 0.0 | 1.6 | 0.00 | 0.00 | 0.00 | 53 | 1009.2 |
| 20260504205121 | 16 | 237 | 0.0 | 1.6 | 0.00 | 0.00 | 0.00 | 53 | 1009.3 |
| 20260504204619 | 16 | 237 | 0.0 | 1.6 | 0.00 | 0.00 | 0.00 | 52 | 1009.3 |
| 20260504204121 | 16 | 231 | 0.0 | 1.6 | 0.00 | 0.00 | 0.00 | 52 | 1009.1 |
| 20260504203610 | 16 | 230 | 0.0 | 0.0 | 0.00 | 0.00 | 0.00 | 53 | 1009.4 |
| 20260504203108 | 16 | 229 | 0.0 | 0.0 | 0.00 | 0.00 | 0.00 | 54 | 1009.2 |
| 20260504202609 | 16 | 230 | 0.0 | 1.6 | 0.00 | 0.00 | 0.00 | 54 | 1009.0 |
| 20260504202108 | 16 | 230 | 0.0 | 1.6 | 0.00 | 0.00 | 0.00 | 54 | 1009.2 |
| 20260504201613 | 16 | 231 | 0.0 | 1.6 | 0.00 | 0.00 | 0.00 | 55 | 1009.1 |
| 20260504200105 | 17 | 230 | 0.0 | 1.6 | 0.00 | 0.00 | 0.00 | 52 | 1009.2 |
| 20260504195559 | 18 | 242 | 0.0 | 1.6 | 0.00 | 0.00 | 0.00 | 52 | 1009.1 |
| 20260504195058 | 17 | 229 | 0.0 | 0.0 | 0.00 | 0.00 | 0.00 | 52 | 1009.2 |
| 20260504194546 | 17 | 229 | 0.0 | 1.6 | 0.00 | 0.00 | 0.00 | 53 | 1009.0 |
| 20260504194044 | 17 | 229 | 0.0 | 1.6 | 0.00 | 0.00 | 0.00 | 53 | 1009.2 |
| 20260504193545 | 17 | 229 | 0.0 | 1.6 | 0.00 | 0.00 | 0.00 | 54 | 1009.3 |
| 20260504193044 | 17 | 230 | 0.0 | 1.6 | 0.00 | 0.00 | 0.00 | 55 | 1009.0 |
| 20260504192545 | 17 | 230 | 0.0 | 1.6 | 0.00 | 0.00 | 0.00 | 54 | 1009.1 |
| 20260504191545 | 18 | 230 | 0.0 | 1.6 | 0.00 | 0.00 | 0.00 | 53 | 1009.1 |
| 20260504191044 | 18 | 229 | 0.0 | 1.6 | 0.00 | 0.00 | 0.00 | 53 | 1008.9 |
| 20260504185549 | 19 | 229 | 0.0 | 1.6 | 0.00 | 0.00 | 0.00 | 51 | 1008.9 |
| 20260504185044 | 20 | 229 | 0.0 | 1.6 | 0.00 | 0.00 | 0.00 | 51 | 1008.9 |
| 20260504184547 | 20 | 236 | 0.0 | 4.8 | 0.00 | 0.00 | 0.00 | 47 | 1008.9 |
| 20260504184045 | 21 | 264 | 0.0 | 9.7 | 0.00 | 0.00 | 0.00 | 46 | 1008.8 |
| 20260504183547 | 21 | 286 | 4.8 | 11.3 | 0.00 | 0.00 | 0.00 | 45 | 1008.9 |
| 20260504183046 | 21 | 231 | 4.8 | 11.3 | 0.00 | 0.00 | 0.00 | 45 | 1008.9 |
| 20260504181547 | 21 | 253 | 6.4 | 9.7 | 0.00 | 0.00 | 0.00 | 46 | 1008.6 |
| 20260504181046 | 21 | 264 | 0.0 | 6.4 | 0.00 | 0.00 | 0.00 | 47 | 1008.7 |
| 20260504180555 | 21 | 276 | 3.2 | 11.3 | 0.00 | 0.00 | 0.00 | 47 | 1008.3 |
| 20260504180046 | 21 | 262 | 8.0 | 11.3 | 0.00 | 0.00 | 0.00 | 46 | 1008.7 |
| 20260504175547 | 21 | 280 | 1.6 | 3.2 | 0.00 | 0.00 | 0.00 | 47 | 1008.5 |
| 20260504175045 | 21 | 269 | 3.2 | 6.4 | 0.00 | 0.00 | 0.00 | 46 | 1008.6 |
| 20260504174546 | 21 | 241 | 3.2 | 6.4 | 0.00 | 0.00 | 0.00 | 46 | 1008.4 |
| 20260504174046 | 21 | 20 | 3.2 | 6.4 | 0.00 | 0.00 | 0.00 | 46 | 1008.5 |
| 20260504173044 | 22 | 273 | 0.0 | 9.7 | 0.00 | 0.00 | 0.00 | 45 | 1008.6 |
| 20260504172545 | 22 | 244 | 1.6 | 9.7 | 0.00 | 0.00 | 0.00 | 45 | 1008.5 |
| 20260504172044 | 22 | 326 | 1.6 | 11.3 | 0.00 | 0.00 | 0.00 | 44 | 1008.4 |
| 20260504171545 | 22 | 271 | 1.6 | 12.9 | 0.00 | 0.00 | 0.00 | 44 | 1008.5 |
| 20260504171045 | 22 | 250 | 3.2 | 12.9 | 0.00 | 0.00 | 0.00 | 44 | 1008.6 |
| 20260504150546 | 25 | 244 | 1.6 | 16.1 | 0.00 | 0.00 | 0.00 | 42 | 1008.5 |
| 20260504141045 | 26 | 227 | 9.7 | 24.1 | 0.00 | 0.00 | 0.00 | 40 | 1009.2 |
| 20260504140547 | 25 | 15 | 6.4 | 16.1 | 0.00 | 0.00 | 0.00 | 39 | 1009.4 |
| 20260504130533 | 24 | 303 | 6.4 | 11.3 | 0.00 | 0.00 | 0.00 | 42 | 1009.8 |
| 20260504110435 | 23 | 247 | 8.0 | 17.7 | 0.00 | 0.00 | 0.00 | 40 | 1010.8 |
| 20260504100407 | 23 | 116 | 6.4 | 11.3 | 0.00 | 0.00 | 0.00 | 41 | 1011.4 |
| 20260504081346 | 21 | 241 | 1.6 | 9.7 | 0.00 | 0.00 | 0.00 | 41 | 1012.1 |
| 20260504080845 | 21 | 251 | 4.8 | 9.7 | 0.00 | 0.00 | 0.00 | 42 | 1011.9 |
| 20260504080345 | 21 | 251 | 1.6 | 17.7 | 0.00 | 0.00 | 0.00 | 42 | 1011.9 |
| 20260504070346 | 19 | 250 | 4.8 | 9.7 | 0.00 | 0.00 | 0.00 | 46 | 1011.8 |
| 20260504050345 | 15 | 181 | 1.6 | 6.4 | 0.00 | 0.00 | 0.00 | 53 | 1011.9 |
| 20260504045846 | 15 | 316 | 3.2 | 4.8 | 0.00 | 0.00 | 0.00 | 53 | 1012.0 |